Skip to main content.
Our real time weather data display below is updated continuously via our 24/7 live data feed.
 TIME   TEMPERATURE   WINDSPEED   DIRECTION   HUMIDITY   BAROMETER   RAINFALL 
6:10 17.0°C (62.6°F) 7.4 kmh (4.6 mph) SSE 82% 1020.0hPa (30.12 inHg) 0.0mm (0.00 in.)
5:10 18.0°C (64.4 °F) 11.1 kmh (6.9 mph) SE 77% 1020.0hPa (30.12 inHg) 0.0mm (0.00 in.)
4:10 19.0°C (66.2 °F) 16.7 kmh (10.4 mph) SE 72% 1020.0hPa (30.12 inHg) 0.0mm (0.00 in.)
3:09 20.0°C (68.0 °F) 9.3 kmh (5.8 mph) N 68% 1020.0hPa (30.12 inHg) 0.0mm (0.00 in.)
2:09 19.0°C (66.2 °F) 9.3 kmh (5.8 mph) N 72% 1021.0hPa (30.15 inHg) 0.0mm (0.00 in.)
1:09 20.0°C (68.0 °F) 9.3 kmh (5.8 mph) N 68% 1021.0hPa (30.15 inHg) 0.0mm (0.00 in.)
12:09 20.0°C (68.0 °F) 13.0 kmh (8.1 mph) N 68% 1022.0hPa (30.18 inHg) 0.0mm (0.00 in.)
11:09 20.0°C (68.0 °F) 7.4 kmh (4.6 mph) N 68% 1022.0hPa (30.18 inHg) 0.0mm (0.00 in.)
10:09 20.0°C (68.0 °F) 7.4 kmh (4.6 mph) N 68% 1022.0hPa (30.18 inHg) 0.0mm (0.00 in.)
9:04 18.0°C (64.4 °F) 7.4 kmh (4.6 mph) N 72% 1022.0hPa (30.18 inHg) 0.0mm (0.00 in.)
7:54 13.0°C (55.4 °F) 3.7 kmh (2.3 mph) N 100% 1022.0hPa (30.18 inHg) 0.0mm (0.00 in.)
6:54 13.0°C (55.4 °F) 0.0 kmh (0.0 mph) N 93% 1022.0hPa (30.18 inHg) 0.0mm (0.00 in.)
5:54 13.0°C (55.4 °F) 1.9 kmh (1.2 mph) N 100% 1021.0hPa (30.15 inHg) 0.0mm (0.00 in.)
4:54 13.0°C (55.4 °F) 1.9 kmh (1.2 mph) N 93% 1022.0hPa (30.18 inHg) 0.0mm (0.00 in.)
3:54 13.0°C (55.4 °F) 1.9 kmh (1.2 mph) N 100% 1022.0hPa (30.18 inHg) 0.0mm (0.00 in.)
2:54 13.0°C (55.4 °F) 0.0 kmh (0.0 mph) N 93% 1023.0hPa (30.21 inHg) 0.0mm (0.00 in.)
1:54 14.0°C (57.2 °F) 1.9 kmh (1.2 mph) N 93% 1023.0hPa (30.21 inHg) 0.0mm (0.00 in.)
12:54 14.0°C (57.2 °F) 1.9 kmh (1.2 mph) N 87% 1023.0hPa (30.21 inHg) 0.0mm (0.00 in.)
11:54 14.0°C (57.2 °F) 5.6 kmh (3.5 mph) N 93% 1023.0hPa (30.21 inHg) 0.0mm (0.00 in.)
10:54 14.0°C (57.2 °F) 3.7 kmh (2.3 mph) N 93% 1023.0hPa (30.21 inHg) 0.0mm (0.00 in.)
9:54 15.0°C (59.0 °F) 5.6 kmh (3.5 mph) N 87% 1023.0hPa (30.21 inHg) 0.0mm (0.00 in.)
8:54 15.0°C (59.0 °F) 3.7 kmh (2.3 mph) N 87% 1023.0hPa (30.21 inHg) 0.0mm (0.00 in.)
7:54 16.0°C (60.8 °F) 3.7 kmh (2.3 mph) N 82% 1023.0hPa (30.21 inHg) 0.0mm (0.00 in.)
6:54 17.0°C (62.6 °F) 3.7 kmh (2.3 mph) N 72% 1023.0hPa (30.21 inHg) 0.0mm (0.00 in.)